Current weather by "City, St" or "zip code"  
 

Current Conditions: Melbourne International Airport, FL

Fair


56.0 F

Last Updated on Feb 26 2021, 4:53 am EST
Humidity: 93%
Wind Speed: W 4.6 mph
Barometer 30.12 in
Dewpoint: 54.0 F
Visibility: 10.00 mi
Precip: --
Heat Index: NA
Wind Chill: 55 F
Current conditions at:

Melbourne International Airport, FL (KMLB)

Lat: 28.09973 Lon: 80.6356

Local Radar Image active severe weather and emergency alerts image image weather storm and storm spotter reports image weather observation monitoring service image
Local
Radar
Active
Alerts
Storm Reports Obs
Monitoring

Sign-up For Email & Text Message Weather Alert Notification Services



Advertise Here

Observation History for Melbourne International Airport, FL


Time Wind
(mph)
Vis
(mi)
Weather Precip (in) Temperature (F) Relative
Humidity
Wind
Chill
(F)
Heat
Index
(F)
Pressure
Air Dwpt altimeter
(in)
sea level
(mb)
Rmks
4:53 am EST W 4.6 10.00 Fair -- 56.0 54.0 93% 55 NA 30.12 1019.8
3:53 am EST N 0.0 10.00 Fair -- 56.0 54.0 93% NA NA 30.12 1019.7
2:53 am EST N 0.0 10.00 Fair -- 56.0 54.0 93% NA NA 30.12 1020.0
1:53 am EST N 0.0 10.00 Fair -- 56.0 54.0 93% NA NA 30.14 1020.5
12:53 am EST N 0.0 10.00 Fair -- 58.0 54.0 87% NA NA 30.16 1021.0
11:53 pm EST N 0.0 10.00 Fair -- 60.0 54.0 80% NA NA 30.16 1021.3
10:53 pm EST N 0.0 10.00 Fair -- 62.0 54.0 75% NA NA 30.17 1021.6
9:53 pm EST E 3.5 10.00 Fair -- 63.0 55.0 76% NA NA 30.18 1021.9
8:53 pm EST E 3.5 10.00 Fair -- 65.0 55.9 73% NA NA 30.17 1021.5
7:53 pm EST E 5.8 10.00 Fair -- 65.0 55.9 73% NA NA 30.15 1021.0
6:53 pm EST NE 5.8 10.00 Fair -- 66.0 57.0 73% NA NA 30.15 1021.0
5:53 pm EST NE 9.2 10.00 Fair -- 69.0 54.0 59% NA NA 30.15 1020.8
3:53 pm EST NE 12.7 10.00 Fair -- 71.0 60.1 68% NA NA 30.13 1020.2
2:53 pm EST NE 11.5 10.00 Fair -- 73.0 60.1 64% NA NA 30.14 1020.6
1:53 pm EST NE 10.4 10.00 Fair -- 75.0 59.0 58% NA NA 30.15 1021.0
12:53 pm EST NE 9.2 10.00 Fair -- 78.0 53.1 42% NA NA 30.18 1021.8
11:53 am EST N 8.1 10.00 Fair -- 76.0 52.0 43% NA NA 30.20 1022.6
10:53 am EST N 9.2 10.00 Fair -- 74.0 53.1 48% NA NA 30.22 1023.2
9:53 am EST N 12.7 10.00 Fair -- 71.0 50.0 47% NA NA 30.22 1023.2
8:53 am EST NW 6.9 10.00 Fair -- 66.0 51.1 59% NA NA 30.20 1022.6
7:53 am EST NW 5.8 10.00 Fair -- 61.0 57.0 87% 61 NA 30.18 1021.8
6:53 am EST W 5.8 10.00 Fair -- 57.0 57.0 100% 56 NA 30.16 1021.0
5:53 am EST NW 3.5 10.00 Fair -- 60.0 60.1 100% NA NA 30.13 1020.3

Regional Weather Observation


Titusville, FL (KTIX)

A Few Clouds
75.0 F

Cocoa - Patrick Air Force Base, FL (KCOF)

Fair
61.0 F

Cocoa Beach, Cape Canaveral Air Force Station Skid Strip, FL (KXMR)

Fair
52.0 F

Titusville, NASA Shuttle Landing Facility, FL (KTTS)

Fair
53.0 F

Orlando International Airport, FL (KMCO)

A Few Clouds
58.0 F

Orlando Executive Airport, FL (KORL)

Fair
58.0 F

Advertise Here


Advertise Here